GW1838 Weather Reports


Display with metric or nautical units.
time (UTC)temp
F
wind
direction
speed
MPH
gust
MPH
rain 1hr
in
rain 24hr
in
rain mn
in
humidity
%
barometer
mb
20260903140304 78 246 5.0 10.0 0.00 1.09 1.09 82 1014.2
20260903133804 76 223 2.0 6.0 0.00 1.09 1.09 87 1013.7
20260903133305 76 213 3.0 5.0 0.00 1.09 1.09 86 1013.6
20260903132306 76 219 3.0 10.0 0.00 1.09 1.09 87 1013.5
20260903131805 75 183 6.0 10.0 0.00 1.09 1.09 87 1013.4
20260903130804 75 238 6.0 12.0 0.00 1.09 1.09 87 1014.4
20260903130304 75 255 6.0 12.0 0.00 1.09 1.09 87 1014.7
20260903125805 75 233 8.0 15.0 0.00 1.09 1.09 87 1014.3
20260903125305 75 221 6.0 13.0 0.00 1.09 1.09 87 1014.3
20260903124805 75 231 7.0 14.0 0.00 1.09 1.09 87 1014.4
20260903124305 75 239 8.0 14.0 0.00 1.09 1.09 87 1014.6
20260903123805 75 232 9.0 14.0 0.00 1.09 1.09 88 1015.0
20260903121804 74 243 5.0 10.0 0.00 1.09 1.09 89 1015.1
20260903121305 74 243 5.0 12.0 0.00 1.09 1.09 88 1015.2
20260903120804 74 245 3.0 7.0 0.00 1.09 1.09 87 1015.1
20260903115804 74 245 3.0 8.0 0.00 1.09 1.09 86 1015.3
20260903115306 74 252 3.0 8.0 0.00 1.09 1.09 86 1015.3
20260903114805 75 255 5.0 10.0 0.00 1.09 1.09 86 1015.1
20260903114304 74 255 6.0 12.0 0.01 1.09 1.09 86 1015.1
20260903113305 74 248 6.0 12.0 0.01 1.09 1.09 88 1015.1
20260903112804 73 240 6.0 12.0 0.01 1.09 1.09 89 1014.9
20260903110804 73 228 4.0 9.0 0.05 1.09 1.09 90 1014.0
20260903110304 73 236 6.0 14.0 0.06 1.09 1.09 91 1014.3
20260903105805 72 236 9.0 14.0 0.07 1.09 1.09 91 1014.5
20260903105306 72 237 7.0 14.0 0.08 1.09 1.09 91 1014.6
20260903104806 72 233 7.0 12.0 0.09 1.09 1.09 92 1014.9
20260903104305 72 237 5.0 10.0 0.08 1.08 1.08 92 1015.0
20260903103804 72 242 3.0 9.0 0.08 1.08 1.08 92 1015.2
20260903102306 71 217 3.0 6.0 0.09 1.08 1.08 92 1015.1
20260903100305 72 257 3.0 10.0 0.05 1.03 1.03 92 1016.1
20260903095306 73 284 4.0 12.0 0.04 1.01 1.01 92 1016.8
20260903094804 74 280 4.0 12.0 0.03 1.00 1.00 93 1016.7
20260903092306 74 280 2.0 5.0 0.02 0.99 0.99 92 1015.5
20260903091805 74 273 2.0 7.0 0.01 0.98 0.98 93 1015.7
20260903091305 73 237 4.0 9.0 0.02 0.98 0.98 92 1015.7
20260903085306 74 227 2.0 6.0 0.01 0.97 0.97 93 1015.4
20260903083804 73 207 2.0 3.0 0.05 0.97 0.97 93 1015.0
20260903083304 73 209 0.0 5.0 0.07 0.97 0.97 93 1015.0
20260903082306 73 208 3.0 6.0 0.12 0.97 0.97 92 1014.7
20260903081805 73 207 2.0 3.0 0.17 0.97 0.97 92 1014.8
20260903081305 73 207 1.0 3.0 0.23 0.96 0.96 92 1014.9
20260903080304 73 189 0.0 3.0 0.51 0.96 0.96 92 1015.1
20260903074304 73 166 2.0 3.0 0.94 0.94 0.94 92 1015.5
20260903073304 73 295 0.0 3.0 0.90 0.90 0.90 92 1016.2
20260903071304 74 333 5.0 10.0 0.73 0.73 0.73 91 1017.3
20260903070804 74 293 3.0 7.0 0.65 0.65 0.65 91 1017.3
20260903064804 74 19 1.0 3.0 0.00 0.00 0.00 91 1016.2
20260903064304 74 19 0.0 1.0 0.00 0.00 0.00 91 1015.7
20260903063805 74 20 3.0 7.0 0.00 0.00 0.00 91 1015.9
20260903061804 75 0 10.0 14.0 0.00 0.00 0.00 91 1016.4
20260903060805 75 347 9.0 12.0 0.00 0.00 0.00 91 1016.2
20260903060304 75 349 4.0 6.0 0.00 0.00 0.00 91 1015.9
20260903055306 75 346 5.0 6.0 0.00 0.00 0.00 91 1015.9
20260903052804 75 123 0.0 0.0 0.00 0.00 0.00 91 1016.1
20260903052307 75 123 0.0 0.0 0.00 0.00 0.00 91 1016.3
20260903050804 75 123 0.0 0.0 0.00 0.00 0.00 91 1016.4
20260903045306 75 123 0.0 0.0 0.00 0.00 0.00 90 1016.6
20260903044804 75 123 0.0 0.0 0.00 0.00 0.00 90 1016.6
20260903044304 74 123 0.0 0.0 0.00 0.00 0.00 90 1016.8
20260903043804 75 123 0.0 0.0 0.00 0.00 0.00 90 1016.7
20260903043304 75 123 0.0 0.0 0.00 0.00 0.00 90 1016.7
20260903042804 75 123 0.0 0.0 0.00 0.00 0.00 90 1016.7
20260903042306 75 123 0.0 2.0 0.00 0.00 0.00 90 1016.8
20260903040836 75 115 1.0 2.0 0.00 0.00 0.00 90 1016.9
20260903035805 75 109 2.0 3.0 0.00 0.00 0.00 90 1016.8
20260903034304 75 131 2.0 5.0 0.00 0.00 0.00 90 1016.5
20260903033304 75 144 3.0 6.0 0.00 0.00 0.00 90 1016.4
20260903032804 74 143 2.0 6.0 0.00 0.00 0.00 90 1016.5
20260903030304 74 124 6.0 13.0 0.00 0.00 0.00 90 1016.7
20260903025306 74 109 5.0 12.0 0.00 0.00 0.00 90 1016.7
20260903023805 74 116 6.0 10.0 0.00 0.00 0.00 90 1016.6
20260903021804 74 118 6.0 12.0 0.00 0.01 0.00 89 1016.7
20260903014304 74 109 7.0 12.0 0.00 0.03 0.00 88 1017.2
20260903013805 74 105 7.0 12.0 0.00 0.05 0.00 88 1017.2
20260903013304 74 102 9.0 13.0 0.00 0.06 0.00 88 1017.3
20260903012306 75 91 5.0 12.0 0.00 0.16 0.00 87 1017.7
20260903011809 75 105 7.0 12.0 0.00 0.47 0.00 87 1017.6
20260903010804 75 104 6.0 9.0 0.00 1.13 0.00 87 1017.5
20260903010304 74 105 7.0 12.0 0.00 1.27 0.00 87 1017.5
20260903005805 75 102 6.0 10.0 0.00 1.42 0.00 87 1017.6
20260903005306 75 98 6.0 9.0 0.00 1.56 0.00 87 1017.6
20260903004304 75 98 6.0 12.0 0.00 1.67 0.00 87 1017.5
20260903003304 74 102 6.0 10.0 0.00 1.71 0.00 87 1017.2
20260903002306 74 102 5.0 12.0 0.00 1.72 0.00 87 1017.0
20260903001804 74 101 5.0 12.0 0.00 1.74 0.00 87 1017.0
20260903001304 74 104 9.0 12.0 0.00 1.74 0.00 86 1016.9
20260903000304 74 108 7.0 12.0 0.00 1.74 0.00 86 1016.9
20260902235306 74 101 9.0 12.0 0.00 1.74 0.00 86 1016.7
20260902234804 74 102 7.0 12.0 0.00 1.74 0.00 86 1016.6
20260902233804 74 90 9.0 13.0 0.00 1.74 0.00 86 1016.6
20260902233303 74 101 7.0 13.0 0.00 1.74 0.00 86 1016.6
20260902231303 74 89 7.0 13.0 0.00 1.74 0.00 85 1016.8
20260902230804 74 95 7.0 13.0 0.00 1.74 0.00 85 1016.7
20260902230304 74 88 8.0 13.0 0.00 1.74 0.00 85 1016.7
20260902224803 74 97 9.0 14.0 0.00 1.74 0.00 85 1017.1
20260902223803 74 99 8.0 13.0 0.00 1.74 0.00 85 1017.2
20260902222803 75 80 7.0 12.0 0.00 1.74 0.00 85 1017.5
20260902221804 75 74 5.0 14.0 0.00 1.74 0.00 85 1017.6
20260902221304 75 95 7.0 12.0 0.00 1.74 0.00 84 1017.6
20260902214808 75 99 6.0 10.0 0.00 1.74 0.00 84 1017.8
20260902214307 75 95 6.0 10.0 0.00 1.74 0.00 84 1017.7
20260902213807 75 97 6.0 12.0 0.00 1.74 0.00 84 1017.8
20260902213307 75 106 5.0 9.0 0.00 1.74 0.00 84 1017.8
20260902212813 75 82 5.0 12.0 0.00 1.74 0.00 84 1017.8
20260902211307 75 81 6.0 12.0 0.00 1.74 0.00 83 1017.4
20260902204808 75 87 5.0 10.0 0.00 1.74 0.00 83 1017.3
20260902204307 75 98 7.0 12.0 0.00 1.74 0.00 84 1017.2
20260902203808 75 100 7.0 10.0 0.00 1.74 0.00 83 1017.3
20260902203307 75 101 7.0 12.0 0.00 1.74 0.00 83 1017.3
20260902202807 75 103 7.0 10.0 0.00 1.74 0.00 83 1017.4
20260902201808 75 96 6.0 12.0 0.00 1.74 0.00 83 1017.6
20260902200808 75 104 6.0 10.0 0.00 1.74 0.00 83 1017.7
20260902195308 76 106 5.0 10.0 0.00 1.74 0.00 82 1017.7
20260902194807 76 87 5.0 10.0 0.00 1.74 0.00 82 1017.8
20260902193808 76 94 3.0 7.0 0.00 1.74 0.00 82 1017.9
20260902193307 76 95 5.0 10.0 0.00 1.74 0.00 81 1017.7
20260902192808 76 81 3.0 9.0 0.00 1.74 0.00 82 1017.8
20260902192307 76 103 6.0 10.0 0.00 1.74 0.00 82 1017.8
20260902191308 76 104 6.0 9.0 0.00 1.74 0.00 81 1018.0
20260902190807 76 105 7.0 12.0 0.00 1.74 0.00 81 1018.2
20260902190307 76 103 5.0 10.0 0.00 1.74 0.00 80 1018.3
20260902185308 76 104 6.0 10.0 0.00 1.74 0.00 80 1018.4
20260902184307 77 102 5.0 8.0 0.00 1.74 0.00 80 1018.0
20260902181807 78 77 3.0 8.0 0.00 1.74 0.00 78 1018.7
20260902181307 77 89 5.0 12.0 0.00 1.74 0.00 78 1018.7
20260902175808 78 78 6.0 12.0 0.00 1.74 0.00 78 1018.9
20260902173808 78 69 7.0 12.0 0.00 1.74 0.00 78 1018.5
20260902173308 78 70 6.0 12.0 0.00 1.74 0.00 79 1018.5
20260902172808 78 73 6.0 12.0 0.00 1.74 0.00 79 1018.5
20260902172308 78 101 7.0 12.0 0.00 1.74 0.00 78 1018.5
20260902171807 78 80 6.0 12.0 0.00 1.74 0.00 79 1018.4
20260902170808 78 90 7.0 12.0 0.00 1.74 0.00 78 1018.4
20260902170308 78 72 6.0 12.0 0.00 1.74 0.00 79 1018.6
20260902164807 78 68 5.0 12.0 0.00 1.74 0.00 79 1018.7
20260902162307 78 74 6.0 10.0 0.00 1.74 0.00 78 1018.6
20260902161307 78 99 7.0 12.0 0.00 1.74 0.00 78 1018.6
20260902160807 78 99 7.0 13.0 0.00 1.74 0.00 78 1018.6
20260902155307 78 96 9.0 15.0 0.00 1.74 0.00 79 1018.5
20260902153807 78 93 6.0 14.0 0.00 1.74 0.00 79 1018.5
20260902153307 77 93 8.0 13.0 0.00 1.74 0.00 80 1018.6
20260902145307 77 97 8.0 15.0 0.00 1.74 0.00 81 1018.9
20260902144307 76 95 7.0 15.0 0.00 1.74 0.00 83 1018.6
20260902142807 76 99 8.0 13.0 0.00 1.74 0.00 84 1018.8